Regional Weather Roundup
Issued by NWS

Home | Current Version | Previous Version | Text Only | Print | Product List | Glossary Off
Versions: 1 2 3 4 5 6 7 8 9 10 11 12 13 14 15 16 17 18 19 20 21 22 23 24 25 26 27 28 29 30 31 32 33 34 35 36 37 38 39 40 41 42 43 44 45 46 47 48 49 50

000
ASUS45 KBOU 231707
RWRCO

WEATHER ROUNDUP FOR COLORADO
NATIONAL WEATHER SERVICE DENVER/BOULDER CO
1100 AM MDT SUN JUL 23 2017

NOTE: "FAIR" INDICATES FEW OR NO CLOUDS BELOW 12000 FEET WITH NO
SIGNIFICANT WEATHER AND/OR OBSTRUCTIONS TO VISIBILITY.

COZ001>005-013-030-031-231800-
...NORTHWEST COLORADO...

CITY           SKY/WX    TMP DP  RH WIND       PRES   REMARKS
CRAIG          FAIR      80  40  23 CALM      30.26F
HAYDEN         FAIR      77  39  25 E5        30.28F
MEEKER         FAIR      78  40  25 CALM      30.26F
RABBIT EARS PA FAIR      64  37  36 CALM      30.60S
STEAMBOAT SPGS FAIR      75  41  29 SW3       30.30F
WALDEN         FAIR      70  37  30 W3        30.44S
$$

COZ006>008-011-231800-
...WEST CENTRAL VALLEYS...

CITY           SKY/WX    TMP DP  RH WIND       PRES   REMARKS
GRAND JUNCTION FAIR      84  47  27 SE6       30.15F
MONTROSE       FAIR      79  50  36 NW8       30.24F
EAGLE          SUNNY     70  46  43 CALM      30.33F
RIFLE          FAIR      80  46  30 VRB5      30.21F
DELTA          FAIR      81  48  32 CALM      30.21S
NUCLA          FAIR      81  45  28 CALM      30.28F
$$

COZ017>023-064>068-231800-
...SOUTHWEST COLORADO...

CITY           SKY/WX    TMP DP  RH WIND       PRES   REMARKS
DURANGO        FAIR      74  48  39 CALM      30.30F
CORTEZ         FAIR      82  51  34 E3        30.23F
PAGOSA SPRINGS PTSUNNY   71  46  41 CALM      30.39S
TELLURIDE      FAIR      70  44  38 W8        30.49S
WOLF CREEK PAS CLOUDY    52  43  71 N6        30.74S
$$

COZ009-010-012-014-032>034-037-058>063-231800-
...CENTRAL COLORADO...

CITY           SKY/WX    TMP DP  RH WIND       PRES   REMARKS
ASPEN          FAIR      76  44  32 N7        30.36F
BUENA VISTA    FAIR      72  47  40 E6        30.42S
COPPER MTN     CLOUDY    59  30  33 SW5       30.72S
BERTHOUD PASS  FAIR      48  34  57 SE5       30.76S
COTTONWOOD PAS FAIR      70  41  35 E6        30.56F
GUNNISON       FAIR      65  49  56 CALM      30.41F
KREMMLING      FAIR      77  45  31 W3        30.39F
LEADVILLE      FAIR      64  36  35 MISG      30.53F
MONARCH PASS   FAIR      55  39  54 NE18      30.81S
SALIDA         FAIR      72  50  45 CALM      30.46F
SUNLIGHT       FAIR      61  34  36 CALM      30.64S
WILKERSON PASS CLOUDY    57  43  58 CALM      30.70S
$$

COZ069>075-231800-
...SAN LUIS VALLEY/SANGRE DE CRISTO MOUNTAINS...

CITY           SKY/WX    TMP DP  RH WIND       PRES   REMARKS
ALAMOSA        FAIR      68  51  54 VRB3      30.39F
DEL NORTE      FAIR      72  46  39 E6        30.43S
LA VETA PASS   NOT AVBL
SAGUACHE         N/A    N/A N/A N/A MISG        N/A
$$

COZ035-036-038>040-231800-
...NORTHERN COLORADO FRONT RANGE...

CITY           SKY/WX    TMP DP  RH WIND       PRES   REMARKS
DENVER INTL AP FAIR      83  50  31 VRB3      30.22F
DMNS CITY PARK   N/A     84  51  31 S2G15     30.21F
AURORA         MOSUNNY   82  52  34 E8        30.24F
FRONT RANGE AP FAIR      84  50  30 CALM      30.24S
ERIE MUNI ARPT FAIR      83  46  26 CALM      30.20F
BOULDER MUN AP FAIR      81  50  34 SE3       30.21F
CENTENNIAL     FAIR      82  50  32 S5        30.25F
BROOMFIELD     MOSUNNY   82  48  30 E8        30.24F
FORT COLLINS   FAIR      81  52  36 VRB3      30.20F
LONGMONT       FAIR      85  51  30 NE5       30.21F
$$

COZ041-046-047-076>085-087-088-231800-
...PIKES PEAK/PALMER DIVIDE AND SOUTHERN FOOTHILLS...

CITY           SKY/WX    TMP DP  RH WIND       PRES   REMARKS
COLO. SPRINGS  FAIR      79  54  41 SE5       30.31R
A. F. ACADEMY  FAIR      79  48  34 SE7       30.31S
SCHRIEVER AFB  FAIR      77  51  39 SE5       30.31S
CHEYENNE MTN   FAIR      75  52  44 SE8       30.30S
ELLICOTT       FAIR     N/A N/A N/A VRB6      30.29S
FALCON           N/A     77  48  35 SE8G16    30.36S
FORT CARSON    FAIR      78  55  45 E5        30.27S
LIMON          FAIR      80  55  42 E8        30.24S
MONUMENT HILL  FAIR      77  46  33 S6        30.37S
CANON CITY     SUNNY     82  54  36 MISG      30.23S
WALSENBURG     FAIR      82  50  32 N3        30.29F
TRINIDAD       FAIR      82  47  29 CALM      30.25F
$$

COZ042>045-048>051-090-091-231800-
...NORTHEAST COLORADO...

CITY           SKY/WX    TMP DP  RH WIND       PRES   REMARKS
GREELEY ARPT   FAIR      82  58  43 VRB3      30.19F
AKRON          FAIR      85  50  29 SE9       30.19S
BURLINGTON     FAIR      87  50  27 SE12      30.16S
WRAY           NOT AVBL
YUMA           NOT AVBL
STERLING       FAIR      84  55  37 S5        30.14S
HOLYOKE        FAIR      90  46  22 S7        30.14F
FORT MORGAN    FAIR      86  53  32 S10G16    30.18F
$$

COZ086-089-092>099-231800-
...SOUTHEAST COLORADO...

CITY           SKY/WX    TMP DP  RH WIND       PRES   REMARKS
PUEBLO         FAIR      85  53  33 VRB3      30.19S
LA JUNTA       FAIR      84  55  36 CALM      30.16S
LAMAR          NOT AVBL
SPRINGFIELD      N/A     83  58  42 NE16G23   30.15S
$$



USA.gov is the U.S. government's official web portal to all federal, state and local government web resources and services.